Location: ?
(35.4064°N, 139.3593°E)
Time: 13:10:47
(UTC+00:00)

ARIANE 6 FM1 Upper Stage - Pass Details

Date: 18 December 2025
Orbit: 522 x 610 km, 62.0° (Epoch: 13 January)

Event Time Altitude Azimuth Distance (km) Brightness Sun altitude
Exits shadow 21:00:22 12° 307° (NW) 1,676 4.5 -9.3°
Maximum altitude 21:01:02 12° 317° (NW) 1,650 4.5 -9.2°
Drops below altitude 10° 21:02:39 10° 341° (NNW) 1,776 4.8 -8.9°
Sets 21:06:07 0° 13° (NNE) 2,658 6.0 -8.2°
